GEFSSE_con_cape1000_102.txt.gz
Probability
39 71 100 100 100 100 100 100 100 100 100 100 100 100 100 100 100 100 100 97 94 97 97 100 100 94 94 94 100 97 100 97 97 100 100 100 100 100 97 97 94 87 100
55 84 100 100 100 100 100 100 100 100 100 100 100 100 100 100 100 100 97 97 90 94 97 100 97 97 100 94 94 97 100 100 100 100 94 94 94 97 97 97 97 94 100
71 87 97 100 100 100 100 100 100 100 100 100 100 100 100 100 100 100 100 97 90 94 87 94 97 94 100 90 90 100 100 100 100 100 97 87 77 94 94 97 100 97 100
77 90 90 100 100 100 100 100 100 100 100 100 100 100 100 100 100 100 100 94 90 90 90 90 84 87 97 94 97 100 100 100 100 97 68 55 61 87 90 97 100 97 97
87 90 100 100 100 100 100 100 100 100 100 100 100 100 100 100 97 94 97 90 87 84 77 77 81 81 90 94 97 100 100 97 84 84 61 58 84 90 97 94 97 97 97
90 90 100 100 100 100 100 100 100 100 100 100 100 100 100 100 97 97 100 94 94 87 81 77 77 81 84 90 97 97 100 97 84 35 48 58 84 97 90 94 94 94 90
84 90 100 100 100 100 100 100 100 100 100 100 100 100 100 100 100 97 100 94 90 84 84 77 77 77 81 84 97 97 97 90 77 39 55 52 90 100 97 97 97 97 90
68 84 100 100 100 100 100 100 100 100 100 100 100 100 100 100 100 100 100 100 97 84 87 81 77 84 90 84 87 90 87 90 58 39 45 71 100 100 97 97 94 94 94
58 84 97 90 97 97 100 100 100 100 100 100 100 100 100 100 100 100 100 100 100 97 90 84 87 81 87 84 84 84 77 77 74 61 42 84 97 100 100 97 97 97 90
61 81 87 81 90 90 94 100 100 100 100 100 100 100 100 100 100 100 100 100 100 97 97 81 71 77 84 84 77 81 77 68 71 61 71 87 100 100 100 100 100 100 100
68 77 71 77 90 81 77 94 94 94 94 100 100 100 100 97 94 100 100 100 97 97 94 97 90 90 90 94 87 84 74 65 39 58 77 90 97 100 100 97 94 97 97
84 84 84 77 87 81 77 94 90 90 94 94 100 100 97 94 94 90 100 100 97 90 84 90 81 84 77 65 77 81 52 39 32 39 71 90 90 97 100 97 94 94 97
84 81 77 84 84 87 94 94 94 94 97 97 90 97 100 100 97 84 87 87 94 77 87 81 65 58 52 55 52 42 32 29 26 23 61 84 90 90 97 97 97 97 94
81 77 77 84 87 94 94 94 94 94 94 87 94 97 97 94 90 87 87 84 87 87 87 74 74 61 55 55 42 29 26 35 32 29 77 71 74 90 94 94 90 97 97
74 77 84 84 90 90 94 94 87 94 77 81 81 84 77 71 81 71 81 71 61 71 65 68 65 65 55 58 52 26 23 26 32 29 55 68 65 81 90 84 84 84 90
74 77 81 84 84 87 90 94 94 87 87 74 74 71 71 74 74 58 55 58 48 52 52 65 61 61 61 55 39 35 39 32 42 48 42 58 68 74 81 81 84 84 81
77 81 84 84 84 87 87 87 81 81 74 68 65 74 58 58 55 39 39 42 42 35 45 48 45 48 48 39 35 32 32 29 29 35 35 42 52 55 65 71 81 84 81
77 74 77 74 84 84 87 87 77 68 61 58 58 61 58 52 48 42 39 35 29 26 26 26 29 29 29 23 26 26 23 29 29 35 32 35 39 32 39 61 74 74 71
71 81 81 84 87 84 81 81 77 81 68 65 52 58 52 48 39 32 32 39 23 16 19 16 16 19 19 16 16 13 13 16 19 19 19 19 26 26 29 42 55 61 55
68 71 74 84 87 77 77 77 74 65 58 58 48 52 42 45 29 23 16 23 13 13 16 16 16 13 13 10 3 6 13 13 13 10 13 10 19 19 16 19 35 39 45
58 71 71 65 74 74 74 65 65 58 58 48 45 45 35 26 19 16 13 16 13 6 6 3 10 6 3 3 3 3 3 3 3 10 10 10 6 6 10 23 23 23 29
55 65 65 68 61 68 71 74 71 61 48 39 35 48 35 23 23 10 13 6 3 6 6 6 10 3 3 3 3 3 3 3 3 0 0 6 6 10 10 10 16 26 19
42 58 45 58 68 71 68 55 48 65 52 29 42 45 35 23 19 16 10 3 6 6 6 10 6 3 3 3 3 3 3 3 0 0 0 0 0 0 13 16 10 16 16
45 55 58 68 74 74 61 42 32 32 16 23 42 39 26 19 19 19 3 3 6 6 6 3 0 6 6 3 3 6 3 3 0 3 0 0 0 0 3 3 6 6 3
32 52 61 61 65 61 55 58 48 16 19 13 19 35 32 19 10 6 10 10 10 6 6 3 3 3 3 3 3 3 3 3 0 0 0 0 0 0 0 0 3 0 3
32 32 42 61 65 61 58 39 42 35 19 10 26 13 13 13 6 6 6 10 6 3 6 6 3 3 0 0 0 0 0 0 0 0 0 0 0 0 0 0 0 0 0

GEFSSE_con_cape1000_108.txt.gz
Probability
58 68 100 100 100 100 100 100 100 100 100 100 100 100 100 100 100 100 100 94 94 100 100 97 94 90 94 97 97 97 97 100 100 100 100 100 100 100 100 100 97 94 97
65 77 100 100 100 100 100 100 100 100 100 100 100 100 100 100 100 100 100 94 97 97 100 97 94 90 90 90 90 94 94 97 100 100 100 100 100 100 100 100 100 97 97
74 84 100 100 100 100 100 100 100 100 100 100 100 100 100 100 97 97 97 90 94 94 94 97 94 90 87 94 97 94 94 94 97 100 100 68 87 100 100 100 100 100 100
74 84 94 100 100 100 100 100 100 100 100 100 100 100 100 100 97 97 97 90 94 90 94 94 87 87 94 97 97 94 94 90 90 97 94 55 68 100 100 100 100 100 100
81 97 100 100 100 100 100 100 100 100 100 100 100 100 100 100 90 90 94 94 90 94 84 87 87 90 97 94 100 97 90 84 90 94 84 84 87 97 100 100 100 100 97
97 97 100 100 100 100 100 100 100 100 100 100 100 100 100 97 94 94 90 94 94 94 90 84 81 87 94 97 90 90 90 87 90 81 87 84 84 97 97 97 97 100 100
90 100 100 100 100 100 100 100 100 100 100 100 100 100 100 100 97 94 90 87 87 77 81 81 77 81 84 84 87 77 87 94 90 81 90 90 94 100 100 94 97 97 97
87 94 100 100 100 100 100 100 100 100 100 100 100 100 100 100 100 97 97 94 81 84 81 81 81 81 81 77 81 74 74 87 84 71 94 90 97 97 94 97 97 94 90
90 90 94 100 100 100 100 100 100 100 100 100 100 100 100 100 100 100 100 97 90 84 81 74 74 77 71 71 65 58 74 87 71 71 87 90 100 100 97 97 97 94 90
97 90 97 97 100 100 100 100 97 100 100 100 100 100 100 100 100 100 100 97 94 87 74 77 74 68 68 68 71 68 77 90 48 58 74 87 100 100 97 97 97 94 90
94 94 90 97 90 90 87 97 97 97 94 97 100 97 97 97 94 100 100 100 94 84 81 87 81 77 84 77 74 87 77 55 45 55 77 90 100 100 100 100 97 97 94
90 87 100 100 100 97 81 94 94 94 94 100 100 100 100 97 97 94 97 97 90 84 84 71 74 81 84 74 77 84 58 39 39 65 77 94 97 100 97 97 97 97 94
87 87 94 94 97 94 94 94 94 90 94 94 97 97 100 97 97 90 90 94 94 81 74 68 68 65 68 81 81 77 58 26 45 61 87 97 97 94 97 94 94 97 97
87 84 81 87 94 94 94 94 94 94 94 90 90 94 97 100 94 94 94 97 90 94 84 74 77 68 68 61 55 61 52 39 42 61 84 94 97 94 97 94 94 94 90
81 81 81 87 94 94 90 90 90 94 90 94 94 87 94 87 90 87 94 94 84 87 81 81 65 71 61 61 55 55 55 58 45 55 71 87 87 97 97 94 94 90 90
77 81 84 87 90 90 90 90 90 94 94 81 84 84 87 90 90 84 81 84 77 74 77 74 58 55 52 55 55 58 55 55 61 55 61 71 77 84 90 97 97 97 90
77 77 77 81 87 90 90 90 87 81 74 71 77 74 77 71 71 71 71 71 68 68 61 58 55 52 45 45 52 45 48 42 45 52 55 68 68 77 81 90 94 90 84
71 71 77 77 84 87 87 87 84 77 77 77 74 68 68 68 52 61 65 58 55 55 48 52 48 45 42 39 39 39 42 55 52 48 52 61 58 45 68 77 87 90 84
74 77 81 81 84 84 77 77 84 84 77 74 68 68 68 55 52 58 65 58 48 42 32 10 26 19 19 26 26 35 26 48 52 29 39 32 32 55 45 58 81 84 77
74 74 77 77 77 84 77 77 84 81 74 74 65 74 68 58 42 58 58 45 35 45 35 32 26 29 23 26 10 6 19 19 26 26 23 29 32 35 26 32 55 48 71
68 74 68 68 71 71 68 71 77 77 74 74 74 74 65 55 48 52 29 35 35 32 23 16 23 16 19 16 10 10 19 23 23 29 29 19 19 19 19 29 32 35 42
65 65 68 68 65 71 74 74 74 81 71 71 68 71 65 48 35 13 35 29 29 29 16 16 16 13 13 10 6 10 3 13 19 10 19 16 13 13 13 19 32 23 16
61 71 58 71 71 71 74 74 71 71 68 65 71 71 52 39 32 35 26 32 29 23 23 13 10 13 13 13 16 6 6 3 6 3 3 13 13 19 13 16 19 19 16
65 71 71 74 77 74 77 68 61 61 58 65 68 71 58 42 32 32 26 26 26 26 29 10 13 13 6 16 13 13 10 10 3 0 3 3 6 10 6 0 6 16 19
61 68 71 77 77 74 61 71 61 65 65 65 68 71 58 45 42 26 29 19 16 26 16 10 16 10 13 10 6 3 3 13 3 0 0 0 3 6 3 3 3 6 13
55 55 65 68 74 77 81 81 74 68 74 68 61 61 48 52 42 26 23 23 16 23 23 16 13 6 10 6 10 3 0 0 0 0 0 0 3 3 3 6 6 3 6

GEFSSE_con_cape1000_114.txt.gz
Probability
84 100 100 100 100 100 100 100 100 100 100 100 100 100 100 100 100 100 100 100 100 100 100 100 100 100 97 97 100 100 100 100 100 100 100 100 100 100 100 100 94 87 97
87 100 100 100 100 100 100 100 100 100 100 100 100 100 100 100 100 100 100 100 100 100 97 100 94 94 94 94 97 100 100 100 100 100 100 100 100 100 100 97 94 94 97
87 97 100 100 100 100 100 100 100 100 100 100 100 100 100 100 100 100 100 100 100 97 94 97 90 90 100 100 97 97 100 100 100 97 97 87 100 100 100 97 100 100 100
81 100 100 100 100 100 100 100 100 100 100 100 100 100 100 100 100 100 100 100 100 94 94 94 94 94 100 100 100 100 100 100 100 97 39 55 87 100 100 100 100 100 100
71 100 100 100 100 100 100 100 100 100 100 100 100 100 100 97 97 97 97 100 100 94 90 90 90 94 97 100 100 100 100 100 97 68 39 52 87 100 100 100 100 100 100
77 97 100 100 100 100 100 100 100 100 100 100 100 100 100 100 100 97 94 94 97 94 87 90 90 97 97 97 97 97 97 100 87 42 42 68 87 100 100 100 100 100 100
87 100 100 100 100 100 100 100 100 100 100 100 100 100 100 100 100 97 97 94 94 94 97 90 87 87 90 97 97 97 97 97 42 39 42 65 87 100 100 100 97 97 100
94 100 100 100 100 100 100 100 100 100 100 100 100 100 100 100 100 100 97 97 97 90 94 94 81 81 87 84 84 87 97 90 48 35 39 65 94 100 100 100 97 97 97
94 97 100 100 100 100 100 100 100 100 100 100 100 100 100 100 100 100 100 100 97 84 90 94 84 77 81 77 71 77 87 87 16 26 39 65 97 100 100 100 100 97 94
97 97 97 100 100 100 100 100 100 100 100 100 100 100 100 100 100 100 100 100 97 94 84 77 71 77 77 77 77 81 84 45 13 16 35 71 94 100 100 97 100 100 97
94 94 97 97 100 100 100 100 100 100 100 100 100 100 100 97 90 97 97 97 94 94 90 77 68 68 74 74 77 84 58 13 10 19 32 90 94 94 100 97 97 94 90
81 87 87 90 94 97 97 97 97 97 97 97 97 100 77 65 68 90 100 100 90 87 81 81 87 71 68 29 35 52 19 10 6 26 35 87 94 94 97 100 100 97 97
71 77 77 84 87 90 90 90 90 90 84 84 84 74 52 48 58 61 71 87 84 74 52 68 61 48 26 16 13 13 19 13 10 19 42 77 94 94 97 100 100 100 100
52 71 74 71 71 71 77 87 87 84 81 71 71 52 39 26 39 29 35 32 23 23 16 23 26 19 16 13 13 10 3 10 6 13 42 81 90 97 94 97 97 100 100
45 65 65 68 68 68 68 71 71 71 68 61 55 42 29 16 10 10 6 13 6 6 13 10 10 6 16 10 6 6 10 3 10 16 26 87 100 100 97 97 100 100 97
52 61 65 65 65 65 52 58 55 55 42 45 39 32 6 3 3 3 0 0 3 0 3 3 3 6 3 6 6 3 3 3 3 3 16 52 90 97 97 94 97 97 100
48 61 68 68 65 61 55 55 58 45 42 35 29 13 13 6 6 0 0 0 0 3 0 0 0 0 3 3 0 0 0 3 3 3 6 13 42 81 90 87 90 90 94
39 55 61 68 52 52 52 39 45 39 32 29 29 23 16 13 10 3 3 0 0 0 0 0 0 0 0 3 3 0 0 0 3 3 6 6 13 26 65 84 87 90 90
42 48 55 52 48 52 48 39 39 32 26 26 23 19 10 19 10 0 0 0 0 0 0 0 0 0 0 0 0 0 0 0 0 3 3 6 10 10 16 29 74 87 87
45 45 48 45 45 39 35 29 23 23 19 23 19 16 10 10 6 0 0 0 0 0 0 0 0 0 0 0 0 0 0 0 0 0 3 3 0 6 6 6 13 39 71
42 39 45 39 39 39 35 29 26 16 16 16 13 10 10 10 3 3 3 3 0 0 0 0 0 0 0 0 0 0 0 0 0 0 0 0 3 3 0 3 3 3 3
39 39 39 39 39 32 26 23 16 16 13 6 6 6 6 10 3 3 0 0 0 0 0 0 0 0 0 0 0 0 0 0 0 0 0 0 0 3 3 6 0 0 0
29 32 32 29 29 26 19 16 13 10 10 6 6 3 6 6 6 3 3 0 0 0 0 0 0 0 0 0 0 0 0 0 0 0 0 0 0 0 3 0 0 0 0
29 29 32 32 26 26 13 10 10 6 6 6 6 3 3 3 3 3 3 3 0 0 0 0 0 0 0 0 0 0 0 0 0 0 0 0 0 0 0 0 0 0 0
32 29 32 29 29 23 13 10 6 3 6 6 3 0 0 3 3 6 3 3 0 0 0 0 0 0 0 0 0 0 0 0 0 0 0 0 0 0 0 0 0 0 0
26 35 29 26 19 16 13 10 3 3 3 6 6 0 0 0 3 3 3 0 3 0 0 0 0 0 0 0 0 0 0 0 0 0 0 0 0 0 0 0 0 0 0

GEFSSE_con_cape1000_120.txt.gz
Probability
55 90 100 100 100 100 100 100 100 100 100 100 100 100 100 100 100 100 97 97 97 100 100 100 90 90 90 97 100 97 100 100 100 100 100 100 97 94 90 90 84 81 87
58 90 100 100 100 100 100 100 100 100 100 100 100 100 100 100 100 100 100 100 100 100 94 90 90 94 94 100 100 100 100 100 100 100 100 100 100 97 90 90 87 84 90
65 94 100 100 100 100 100 100 100 100 100 100 100 100 100 100 100 100 100 100 100 97 87 87 87 90 94 97 100 100 100 100 100 100 100 94 94 97 90 90 90 90 90
74 90 100 100 100 100 100 100 100 100 100 100 100 100 100 100 100 100 97 97 94 90 84 84 87 94 97 97 100 97 100 100 97 97 84 81 84 97 94 94 90 90 94
81 90 100 100 100 100 100 100 100 100 100 100 100 100 100 100 100 97 94 94 94 87 84 84 87 97 97 97 100 97 100 100 97 74 71 81 97 97 94 94 90 90 94
84 84 100 100 100 100 100 100 100 100 100 100 100 100 100 100 100 94 94 94 90 87 87 84 81 87 97 100 100 100 100 100 84 48 68 81 97 100 94 97 97 97 94
84 94 100 100 100 100 100 100 100 100 100 100 100 100 100 100 100 100 94 97 94 87 87 84 87 87 90 97 94 97 94 94 48 48 68 81 100 100 100 100 97 97 90
87 97 100 100 100 100 100 100 100 100 100 100 100 100 100 100 100 97 97 87 90 90 84 87 87 90 87 87 94 94 94 84 58 48 61 77 97 100 97 97 97 94 94
90 94 100 100 100 100 100 100 100 100 100 100 100 100 100 97 97 97 97 90 77 84 90 87 84 84 84 84 81 90 90 81 42 55 58 77 97 100 97 97 94 94 87
90 94 97 100 100 100 100 100 100 100 100 100 100 100 100 97 97 97 100 90 81 81 90 87 84 84 84 90 94 97 87 71 29 39 58 81 97 100 100 97 97 90 87
90 94 94 97 97 100 100 100 100 100 100 100 100 100 100 90 94 97 94 90 81 81 77 84 84 81 74 77 94 94 65 26 23 42 52 87 97 97 94 94 97 94 87
81 84 87 90 97 97 100 100 100 100 100 100 100 100 84 71 77 84 94 94 87 84 84 77 74 61 48 39 55 55 32 26 29 32 48 84 94 97 94 97 97 97 90
71 74 84 87 87 84 94 97 97 94 97 87 87 77 65 52 65 68 65 84 77 65 39 48 45 35 23 16 29 35 29 26 32 26 39 84 87 97 97 94 94 94 90
71 74 74 77 81 81 81 90 77 81 81 77 74 65 45 35 29 29 29 29 29 23 16 13 16 19 13 13 19 26 26 29 26 26 35 77 87 90 90 94 100 100 90
65 71 71 71 74 68 74 81 81 71 68 68 55 48 29 26 16 13 10 10 16 10 6 6 6 10 10 13 13 13 19 26 32 29 39 65 87 90 97 94 94 97 100
45 55 58 65 65 61 65 65 58 61 52 48 48 45 29 16 6 6 6 6 3 3 3 3 3 3 3 3 6 6 6 10 19 16 23 35 77 90 94 87 81 74 74
29 35 48 48 52 48 45 48 45 42 42 35 35 32 23 6 6 6 3 3 0 0 0 0 0 0 0 0 0 3 6 3 6 10 16 32 32 65 84 84 84 84 74
23 19 29 48 52 42 42 42 39 35 39 35 29 13 16 10 6 3 3 0 0 0 0 0 0 0 0 0 0 0 0 0 3 3 10 13 23 26 48 71 81 81 77
19 16 29 32 35 42 35 16 19 19 19 16 10 10 10 10 3 3 3 0 0 0 0 0 0 0 0 0 0 0 0 0 0 0 6 10 13 16 32 19 45 58 71
13 13 19 29 29 29 16 6 10 6 6 3 6 6 3 3 3 3 0 0 0 0 0 0 0 0 0 0 0 0 0 0 0 0 0 3 3 10 13 13 19 23 42
16 10 13 19 16 10 10 10 16 10 10 13 3 3 3 3 3 0 0 0 0 0 0 0 0 0 0 0 0 0 0 0 0 0 0 0 3 6 3 3 13 16 19
19 10 10 16 13 13 13 10 10 6 10 10 10 3 3 3 3 0 0 0 0 0 0 0 0 0 0 0 0 0 0 0 0 0 0 0 0 3 6 3 3 10 6
13 10 13 19 10 6 10 10 3 3 3 3 3 6 3 3 3 0 0 0 0 0 0 0 0 0 0 0 0 0 0 0 0 0 0 0 0 0 6 3 3 6 3
16 13 13 16 10 6 10 10 6 3 3 3 3 6 3 3 3 3 0 0 0 0 0 0 0 0 0 0 0 0 0 0 0 0 0 0 0 0 0 0 0 3 3
13 13 19 16 10 6 6 6 6 6 3 3 0 0 0 0 0 3 3 0 0 0 0 0 0 0 0 0 0 0 0 0 0 0 0 0 0 0 0 0 0 0 0
10 13 13 16 13 13 6 6 6 6 3 3 0 0 0 0 0 0 3 3 0 0 0 0 0 0 0 0 0 0 0 0 0 0 0 0 0 0 0 0 0 0 0